"Pseudo-MPEC" for P10OSyw

Created 2019 Jun 14 2:09:04 UT using Find_Orb

Click here for an explanation of pseudo-MPECs

 
 Astrometry: 
     P10OSyw  C2017 06 22+)Nc4Oyy^b4,6OmLVqo)Qcamy#KljQMO;a$:aVuHl$o?ZL6*UgG4F51
     P10OSyw  C2017 06 22F?_mc`D7Astrometry5_xmS9c0ifm[A(-1redacted;2cRYYfYSLF51
     P10OSyw  C2017 06 22pfq-U0`yeNhQ*6gt7*7jcq0vJ6I@t(1^h3ASPd^5K;rR7v?.-;2CF51
     P10OSyw  C2017 06 22S851wWyyx,*D?pp4hpfj-ccpp%(mC5m6JY3[2f4JPbCG2Wi\xZDaF51
     P10OSyw  C2017 07 16w:1VBX2Lj\+#rqC,5n\Q7]dIMGaDb^^clicks;[+omW_)!3_--DTF51
     P10OSyw  C2019 03 28y'rHTrooqWT/*Ij57GWucsPQ28St6as=YuL,DA#!O2_xWNHOswmFF51
     P10OSyw  C2019 03 28NDY@Q-V9sLUyXyu5TJmIYAe[q9Y9hereabL'mY],903n0Em+[G/]F51
     P10OSyw  C2019 03 28:Xp6xQa7d%*KAWR46iuP.DdSlIhmX%b7uxi'9Zkrdq9AI'X9bmd,F51
     P10OSyw  C2019 06 09WRZ,Flf.)a`LBS,hKq_8.EJ!H2n2s%*K_kKRWY5sb;H)Q?ho2P;\F51
     P10OSyw  C2019 06 09R=oOforh4m?%?K\R;TWo,%R8y@-1qmI?#I^)],#K(xWC,]TD4.\3F51
     P10OSyw  C2019 06 09OiDFFkI?bLh0%,gAWosimLG\J[j,nsPl?v8B;I^3ca_oXab8h0N8F51
     P10OSyw  C2019 06 09E?En8O:2KR.@,W$ajexplanationBHj'@:9(Rpfbfy-Zl\t$a'2(F51

Station data:
(F51) Pan-STARRS 1, Haleakala  (N20.707235 W156.255910)  US/Hawaii.
   Observers N. Primak, A. Schultz, S. Watters, J. Thiel, T. Goggia. Measurer
   PS1 Science Consortium. 1.8-m Ritchey-Chrétien + CCD.

Orbital elements:  P10OSyw
   Perihelion 2019 May 2.496837 +/- 0.000911 TT = 11:55:26 (JD 2458605.996837)
Epoch 2019 Jun  9.0 TT = JDT 2458643.5   Earth MOID: 0.4721   AutoNEOCP
M  18.06916223 +/- 0.00043          (J2000 ecliptic)
n   0.48180368 +/- 9e-8             Peri.   86.01120 +/- 0.0007
a   1.61147153 +/- 2.01e-7          Node   128.59570 +/- 0.00016
e   0.1896985 +/- 7.24e-7           Incl.   22.42472 +/- 0.000054
P   2.05/747.18d           H 20.7   G  0.15   U  2.0  
q 1.30577771 +/- 1.31e-6    Q 1.91716535 +/- 9.66e-7
From 12 observations 2017 June 22-2019 June 9; mean residual 0".13
Residuals in arcseconds: 
170622 F51  .01+  .02-    170716 F51  .04-  .04-    190609 F51  .00   .00     
170622 F51  .05+  .03+    190328 F51  .05+  .14+    190609 F51  .07+  .00     
170622 F51  .02+  .24+    190328 F51  .28+  .12+    190609 F51  .09-  .27-    
170622 F51  .01+  .00     190328 F51  .30-  .20-    190609 F51  .01+  .02-    

Ephemerides (geocentric):
Date (UTC) HH   RA              Dec         delta   r     elong  mag " sig PA
---- -- -- --  -------------   -----------  ------ ------ -----  --- ---- ---
2019 06 14 02  14 43 10.697   +36 54 40.24  .60177 1.3347 108.5 22.0 .086  58
2019 06 14 03  14 43 12.404   +36 53 03.09  .60184 1.3348 108.5 22.0 .086  58
2019 06 14 04  14 43 14.114   +36 51 25.89  .60191 1.3348 108.5 22.0 .086  58
2019 06 14 05  14 43 15.828   +36 49 48.64  .60198 1.3349 108.5 22.0 .086  58
2019 06 14 06  14 43 17.544   +36 48 11.34  .60205 1.3349 108.5 22.0 .086  59
2019 06 14 07  14 43 19.264   +36 46 33.99  .60212 1.3350 108.5 22.0 .086  59
2019 06 14 08  14 43 20.987   +36 44 56.59  .60218 1.3351 108.5 22.0 .086  59
2019 06 14 09  14 43 22.714   +36 43 19.15  .60225 1.3351 108.5 22.0 .086  59
2019 06 14 10  14 43 24.443   +36 41 41.66  .60232 1.3352 108.5 22.0 .086  59
2019 06 14 11  14 43 26.176   +36 40 04.11  .60239 1.3352 108.5 22.0 .086  59
2019 06 14 12  14 43 27.912   +36 38 26.53  .60246 1.3353 108.5 22.0 .086  59
2019 06 14 13  14 43 29.651   +36 36 48.89  .60253 1.3353 108.5 22.0 .086  59
2019 06 14 14  14 43 31.393   +36 35 11.20  .60260 1.3354 108.5 22.0 .086  60
2019 06 14 15  14 43 33.138   +36 33 33.47  .60267 1.3354 108.5 22.0 .086  60
2019 06 14 16  14 43 34.887   +36 31 55.69  .60274 1.3355 108.5 22.0 .086  60
2019 06 14 17  14 43 36.639   +36 30 17.86  .60280 1.3355 108.5 22.0 .086  60
2019 06 14 18  14 43 38.394   +36 28 39.99  .60287 1.3356 108.5 22.0 .086  60
2019 06 14 19  14 43 40.152   +36 27 02.06  .60294 1.3357 108.5 22.0 .086  60
2019 06 14 20  14 43 41.913   +36 25 24.09  .60301 1.3357 108.5 22.0 .086  60
2019 06 14 21  14 43 43.678   +36 23 46.08  .60308 1.3358 108.5 22.0 .086  60
2019 06 14 22  14 43 45.446   +36 22 08.01  .60315 1.3358 108.5 22.0 .086  60
2019 06 14 23  14 43 47.217   +36 20 29.90  .60322 1.3359 108.5 22.0 .086  61
2019 06 15 00  14 43 48.991   +36 18 51.74  .60329 1.3359 108.5 22.0 .086  61
2019 06 15 01  14 43 50.768   +36 17 13.53  .60336 1.3360 108.5 22.0 .086  61
2019 06 15 02  14 43 52.548   +36 15 35.28  .60343 1.3361 108.5 22.0 .086  61
2019 06 15 03  14 43 54.332   +36 13 56.98  .60350 1.3361 108.5 22.0 .086  61
2019 06 15 04  14 43 56.118   +36 12 18.63  .60357 1.3362 108.5 22.0 .086  61
2019 06 15 05  14 43 57.908   +36 10 40.23  .60364 1.3362 108.5 22.0 .086  61
2019 06 15 06  14 43 59.701   +36 09 01.79  .60372 1.3363 108.5 22.0 .086  61
2019 06 15 07  14 44 01.497   +36 07 23.30  .60379 1.3363 108.5 22.0 .086  62
2019 06 15 08  14 44 03.297   +36 05 44.77  .60386 1.3364 108.5 22.0 .086  62
2019 06 15 09  14 44 05.099   +36 04 06.19  .60393 1.3364 108.5 22.0 .086  62
2019 06 15 10  14 44 06.905   +36 02 27.56  .60400 1.3365 108.5 22.0 .086  62
2019 06 15 11  14 44 08.714   +36 00 48.89  .60407 1.3366 108.5 22.0 .086  62
2019 06 15 12  14 44 10.525   +35 59 10.16  .60414 1.3366 108.5 22.0 .086  62
2019 06 15 13  14 44 12.341   +35 57 31.40  .60421 1.3367 108.5 22.0 .086  62
2019 06 15 14  14 44 14.159   +35 55 52.58  .60428 1.3367 108.5 22.0 .086  62
2019 06 15 15  14 44 15.980   +35 54 13.73  .60436 1.3368 108.5 22.0 .086  63
2019 06 15 16  14 44 17.804   +35 52 34.82  .60443 1.3368 108.5 22.0 .086  63
2019 06 15 17  14 44 19.632   +35 50 55.87  .60450 1.3369 108.5 22.0 .086  63
2019 06 15 18  14 44 21.463   +35 49 16.87  .60457 1.3370 108.5 22.0 .086  63
2019 06 15 19  14 44 23.297   +35 47 37.83  .60464 1.3370 108.5 22.0 .086  63
2019 06 15 20  14 44 25.134   +35 45 58.74  .60472 1.3371 108.5 22.0 .086  63
2019 06 15 21  14 44 26.974   +35 44 19.61  .60479 1.3371 108.5 22.0 .086  63
2019 06 15 22  14 44 28.817   +35 42 40.43  .60486 1.3372 108.5 22.0 .086  63
2019 06 15 23  14 44 30.663   +35 41 01.20  .60493 1.3372 108.5 22.0 .086  64
2019 06 16 00  14 44 32.513   +35 39 21.93  .60500 1.3373 108.5 22.0 .086  64
2019 06 16 01  14 44 34.365   +35 37 42.61  .60508 1.3374 108.5 22.0 .086  64